Time,TemperatureF,DewpointF,PressureIn,WindDirection,WindDirectionDegrees,WindSpeedMPH,WindSpeedGustMPH,Humidity,HourlyPrecipIn,Conditions,Clouds,dailyrainin,SoftwareType,DateUTC
2013-01-29 00:00:00,21.8,18.5,30.05,SE,125,0.3,1.1,87,0.00,-SN,,0.00,WeatherDisplay:10.37,2013-01-29 05:00:00,
2013-01-29 00:01:00,21.8,18.5,30.05,SE,125,0.9,3.0,87,0.00,OVC,,0.00,WeatherDisplay:10.37,2013-01-29 05:01:00,
2013-01-29 00:03:00,21.8,18.5,30.05,SE,125,2.6,3.5,87,0.00,OVC,,0.00,WeatherDisplay:10.37,2013-01-29 05:03:00,
2013-01-29 00:08:00,21.8,18.5,30.05,SE,125,2.4,4.0,87,0.00,OVC,,0.00,WeatherDisplay:10.37,2013-01-29 05:08:00,
2013-01-29 00:13:00,21.8,18.5,30.05,SE,125,0.8,2.3,87,0.00,OVC,,0.00,WeatherDisplay:10.37,2013-01-29 05:13:00,
2013-01-29 00:18:00,21.8,18.5,30.06,SE,125,0.4,2.3,87,0.00,OVC,,0.00,WeatherDisplay:10.37,2013-01-29 05:18:00,
2013-01-29 00:23:00,21.8,18.5,30.06,SE,125,0.1,1.1,87,0.00,OVC,,0.00,WeatherDisplay:10.37,2013-01-29 05:23:00,
2013-01-29 00:28:00,21.8,18.5,30.06,SE,125,2.1,3.5,87,0.00,OVC,,0.00,WeatherDisplay:10.37,2013-01-29 05:28:00,
2013-01-29 00:33:00,21.8,18.5,30.06,SE,125,1.0,2.3,87,0.00,-SN,,0.00,WeatherDisplay:10.37,2013-01-29 05:33:00,
2013-01-29 00:38:00,21.6,18.3,30.06,SE,125,0.7,2.0,87,0.00,-SN,,0.00,WeatherDisplay:10.37,2013-01-29 05:38:00,
2013-01-29 00:43:00,21.6,18.3,30.06,SE,125,2.0,3.5,87,0.00,-SN,,0.00,WeatherDisplay:10.37,2013-01-29 05:43:00,
2013-01-29 00:48:00,21.6,18.3,30.05,North,357,0.6,1.1,87,0.00,-SN,,0.00,WeatherDisplay:10.37,2013-01-29 05:48:00,
2013-01-29 00:53:00,21.6,18.3,30.05,NNW,333,1.3,2.3,87,0.00,-SN,,0.00,WeatherDisplay:10.37,2013-01-29 05:53:00,
2013-01-29 00:58:00,21.6,18.3,30.06,North,355,0.9,2.3,87,0.00,-SN,,0.00,WeatherDisplay:10.37,2013-01-29 05:58:00,
2013-01-29 01:03:00,21.6,18.3,30.06,NW,310,0.5,2.3,87,0.00,-SN,,0.00,WeatherDisplay:10.37,2013-01-29 06:03:00,
2013-01-29 01:08:00,21.6,18.3,30.06,NNW,337,0.4,2.3,87,0.00,-SN,,0.00,WeatherDisplay:10.37,2013-01-29 06:08:00,
2013-01-29 01:13:00,21.6,18.3,30.06,NNW,338,0.8,2.0,87,0.00,-SN,,0.00,WeatherDisplay:10.37,2013-01-29 06:13:00,
2013-01-29 01:18:00,21.6,18.3,30.06,NNW,338,0.1,1.0,87,0.00,-SN,,0.00,WeatherDisplay:10.37,2013-01-29 06:18:00,
2013-01-29 01:23:00,21.6,18.3,30.06,NNW,340,0.1,0.0,87,0.00,-SN,,0.00,WeatherDisplay:10.37,2013-01-29 06:23:00,
2013-01-29 01:28:00,21.6,18.3,30.06,NNW,341,1.0,2.3,87,0.00,-SN,,0.00,WeatherDisplay:10.37,2013-01-29 06:28:00,
2013-01-29 01:33:00,21.6,18.3,30.06,North,1,1.4,3.5,87,0.00,-SN,,0.00,WeatherDisplay:10.37,2013-01-29 06:33:00,
2013-01-29 01:38:00,21.5,18.5,30.06,North,0,1.5,2.3,88,0.00,-SN,,0.00,WeatherDisplay:10.37,2013-01-29 06:38:00,
2013-01-29 01:43:00,21.5,18.2,30.06,NNW,327,0.2,2.3,87,0.00,-SN,,0.00,WeatherDisplay:10.37,2013-01-29 06:43:00,
2013-01-29 01:48:00,21.5,18.5,30.07,NNW,333,0.0,2.3,88,0.00,-SN,,0.00,WeatherDisplay:10.37,2013-01-29 06:48:00,
2013-01-29 01:53:00,21.5,18.5,30.07,NNW,343,0.0,1.1,88,0.00,-SN,,0.00,WeatherDisplay:10.37,2013-01-29 06:53:00,
2013-01-29 01:58:00,21.5,18.5,30.07,NNW,345,1.1,3.5,88,0.00,-SN,,0.00,WeatherDisplay:10.37,2013-01-29 06:58:00,
2013-01-29 02:03:00,21.5,18.5,30.07,North,358,1.4,2.3,88,0.00,-SN,,0.00,WeatherDisplay:10.37,2013-01-29 07:03:00,
2013-01-29 02:08:00,21.5,18.5,30.07,North,354,0.5,2.3,88,0.00,-SN,,0.00,WeatherDisplay:10.37,2013-01-29 07:08:00,
2013-01-29 02:13:00,21.5,18.5,30.07,North,2,0.8,2.3,88,0.00,-SN,,0.00,WeatherDisplay:10.37,2013-01-29 07:13:00,
2013-01-29 02:18:00,21.5,18.5,30.07,North,355,2.0,3.5,88,0.00,-SN,,0.00,WeatherDisplay:10.37,2013-01-29 07:18:00,
2013-01-29 02:23:00,21.5,18.5,30.07,North,358,0.0,1.1,88,0.00,-SN,,0.00,WeatherDisplay:10.37,2013-01-29 07:23:00,
2013-01-29 02:28:00,21.5,18.5,30.08,NNW,348,2.3,5.8,88,0.00,-SN,,0.00,WeatherDisplay:10.37,2013-01-29 07:28:00,
2013-01-29 02:33:00,21.5,18.5,30.08,NNE,17,0.5,2.3,88,0.00,-SN,,0.00,WeatherDisplay:10.37,2013-01-29 07:33:00,
2013-01-29 02:38:00,21.5,18.5,30.08,NNW,345,1.2,2.3,88,0.00,-SN,,0.00,WeatherDisplay:10.37,2013-01-29 07:38:00,
2013-01-29 02:43:00,21.6,18.6,30.08,NNW,348,0.6,2.0,88,0.00,-SN,,0.00,WeatherDisplay:10.37,2013-01-29 07:43:00,
2013-01-29 02:48:00,21.6,18.6,30.08,North,0,0.9,3.0,88,0.00,-SN,,0.00,WeatherDisplay:10.37,2013-01-29 07:48:00,
2013-01-29 02:53:00,21.6,18.6,30.08,NW,319,1.2,3.5,88,0.00,-SN,,0.00,WeatherDisplay:10.37,2013-01-29 07:53:00,
2013-01-29 02:58:00,21.6,18.6,30.08,North,0,0.2,1.1,88,0.00,-SN,,0.00,WeatherDisplay:10.37,2013-01-29 07:58:00,
2013-01-29 03:03:00,21.6,18.3,30.08,North,0,0.0,0.0,87,0.00,-SN,,0.00,WeatherDisplay:10.37,2013-01-29 08:03:00,
2013-01-29 03:08:00,21.6,18.3,30.08,North,0,0.0,0.0,87,0.00,-SN,,0.00,WeatherDisplay:10.37,2013-01-29 08:08:00,
2013-01-29 03:13:00,21.6,18.3,30.08,North,0,0.5,1.1,87,0.00,-SN,,0.00,WeatherDisplay:10.37,2013-01-29 08:13:00,
2013-01-29 03:18:00,21.8,18.5,30.08,North,0,0.0,0.0,87,0.00,-SN,,0.00,WeatherDisplay:10.37,2013-01-29 08:18:00,
2013-01-29 03:23:00,21.8,18.5,30.08,North,0,0.3,1.1,87,0.00,-SN,,0.00,WeatherDisplay:10.37,2013-01-29 08:23:00,
2013-01-29 03:28:00,21.8,18.5,30.08,North,0,0.0,0.0,87,0.00,-SN,,0.00,WeatherDisplay:10.37,2013-01-29 08:28:00,
2013-01-29 03:33:00,21.8,18.5,30.08,North,0,1.2,2.3,87,0.00,-SN,,0.00,WeatherDisplay:10.37,2013-01-29 08:33:00,
2013-01-29 03:38:00,21.8,18.5,30.08,North,357,2.2,3.5,87,0.00,-SN,,0.00,WeatherDisplay:10.37,2013-01-29 08:38:00,
2013-01-29 03:43:00,21.8,18.5,30.08,North,355,0.0,1.1,87,0.00,-SN,,0.00,WeatherDisplay:10.37,2013-01-29 08:43:00,
2013-01-29 03:48:00,21.8,18.5,30.09,North,354,1.3,2.3,87,0.00,-SN,,0.00,WeatherDisplay:10.37,2013-01-29 08:48:00,
2013-01-29 03:53:00,21.8,18.5,30.09,NNW,347,0.0,0.0,87,0.00,-SN,,0.00,WeatherDisplay:10.37,2013-01-29 08:53:00,
2013-01-29 03:58:00,21.8,18.5,30.09,NNW,347,0.2,1.1,87,0.00,-SN,,0.00,WeatherDisplay:10.37,2013-01-29 08:58:00,
2013-01-29 04:03:00,21.8,18.5,30.09,NNW,345,1.3,2.3,87,0.00,OVC,,0.00,WeatherDisplay:10.37,2013-01-29 09:03:00,
2013-01-29 04:08:00,21.8,18.5,30.09,North,0,0.1,1.1,87,0.00,OVC,,0.00,WeatherDisplay:10.37,2013-01-29 09:08:00,
2013-01-29 04:13:00,21.8,18.5,30.09,NNE,15,1.7,3.5,87,0.00,OVC,,0.00,WeatherDisplay:10.37,2013-01-29 09:13:00,
2013-01-29 04:18:00,21.8,18.5,30.09,NNE,14,0.0,0.0,87,0.00,OVC,,0.00,WeatherDisplay:10.37,2013-01-29 09:18:00,
2013-01-29 04:23:00,21.8,18.5,30.09,NNW,347,0.4,2.3,87,0.00,OVC,,0.00,WeatherDisplay:10.37,2013-01-29 09:23:00,
2013-01-29 04:28:00,21.6,18.3,30.09,NNW,333,1.2,3.5,87,0.00,OVC,,0.00,WeatherDisplay:10.37,2013-01-29 09:28:00,
2013-01-29 04:33:00,21.6,18.3,30.09,North,2,1.4,3.5,87,0.00,OVC,,0.00,WeatherDisplay:10.37,2013-01-29 09:33:00,
2013-01-29 04:38:00,21.6,18.3,30.10,NW,323,0.0,1.1,87,0.00,OVC,,0.00,WeatherDisplay:10.37,2013-01-29 09:38:00,
2013-01-29 04:43:00,21.6,18.1,30.10,NNW,345,0.3,0.0,86,0.00,OVC,,0.00,WeatherDisplay:10.37,2013-01-29 09:43:00,
2013-01-29 04:48:00,21.6,18.1,30.10,NNW,345,0.6,2.3,86,0.00,OVC,,0.00,WeatherDisplay:10.37,2013-01-29 09:48:00,
2013-01-29 04:53:00,21.6,18.1,30.10,NNW,345,0.0,0.0,86,0.00,OVC,,0.00,WeatherDisplay:10.37,2013-01-29 09:53:00,
2013-01-29 04:58:00,21.6,18.1,30.10,NNW,333,1.1,2.3,86,0.00,OVC,,0.00,WeatherDisplay:10.37,2013-01-29 09:58:00,
2013-01-29 05:03:00,21.5,18.0,30.10,NNW,344,1.0,2.3,86,0.00,OVC,,0.00,WeatherDisplay:10.37,2013-01-29 10:03:00,
2013-01-29 05:08:00,21.5,18.0,30.10,NNW,343,0.0,0.0,86,0.00,OVC,,0.00,WeatherDisplay:10.37,2013-01-29 10:08:00,
2013-01-29 05:13:00,21.3,17.5,30.10,NNW,343,0.1,1.1,85,0.00,OVC,,0.00,WeatherDisplay:10.37,2013-01-29 10:13:00,
2013-01-29 05:18:00,21.0,17.2,30.10,NNW,343,0.1,1.1,85,0.00,OVC,,0.00,WeatherDisplay:10.37,2013-01-29 10:18:00,
2013-01-29 05:23:00,20.8,17.0,30.10,NNW,343,0.0,0.0,85,0.00,OVC,,0.00,WeatherDisplay:10.37,2013-01-29 10:23:00,
2013-01-29 05:28:00,20.5,16.7,30.11,NNW,344,0.0,1.1,85,0.00,OVC,,0.00,WeatherDisplay:10.37,2013-01-29 10:28:00,
2013-01-29 05:33:00,20.2,16.4,30.11,NNW,343,0.0,0.0,85,0.00,OVC,,0.00,WeatherDisplay:10.37,2013-01-29 10:33:00,
2013-01-29 05:38:00,19.9,16.1,30.11,NNW,343,0.0,0.0,85,0.00,OVC,,0.00,WeatherDisplay:10.37,2013-01-29 10:38:00,
2013-01-29 05:43:00,19.4,15.6,30.11,NNW,344,0.1,1.0,85,0.00,OVC,,0.00,WeatherDisplay:10.37,2013-01-29 10:43:00,
2013-01-29 05:48:00,19.1,15.3,30.11,NNW,344,0.6,1.1,85,0.00,FEW,,0.00,WeatherDisplay:10.37,2013-01-29 10:48:00,
2013-01-29 05:53:00,18.9,15.1,30.11,NNW,343,0.0,0.0,85,0.00,FEW,,0.00,WeatherDisplay:10.37,2013-01-29 10:53:00,
2013-01-29 05:58:00,18.6,14.8,30.11,NNW,343,0.0,0.0,85,0.00,FEW,,0.00,WeatherDisplay:10.37,2013-01-29 10:58:00,
2013-01-29 06:03:00,18.1,14.1,30.11,NNW,343,0.0,0.0,84,0.00,CLR,,0.00,WeatherDisplay:10.37,2013-01-29 11:03:00,
2013-01-29 06:08:00,17.7,14.0,30.11,NNW,343,0.0,0.0,85,0.00,CLR,,0.00,WeatherDisplay:10.37,2013-01-29 11:08:00,
2013-01-29 06:13:00,17.4,13.7,30.11,NNW,343,0.7,2.3,85,0.00,CLR,,0.00,WeatherDisplay:10.37,2013-01-29 11:13:00,
2013-01-29 06:18:00,17.0,13.0,30.11,NNW,344,0.0,0.0,84,0.00,CLR,,0.00,WeatherDisplay:10.37,2013-01-29 11:18:00,
2013-01-29 06:23:00,16.7,13.0,30.11,NNW,343,0.0,0.0,85,0.00,CLR,,0.00,WeatherDisplay:10.37,2013-01-29 11:23:00,
2013-01-29 06:28:00,16.4,12.4,30.11,NNW,343,0.0,0.0,84,0.00,CLR,,0.00,WeatherDisplay:10.37,2013-01-29 11:28:00,
2013-01-29 06:33:00,16.2,12.5,30.12,NNW,343,0.0,1.1,85,0.00,CLR,,0.00,WeatherDisplay:10.37,2013-01-29 11:33:00,
2013-01-29 06:38:00,15.9,12.2,30.13,NNW,343,0.0,0.0,85,0.00,CLR,,0.00,WeatherDisplay:10.37,2013-01-29 11:38:00,
2013-01-29 06:43:00,15.8,12.1,30.13,NNW,344,0.6,1.1,85,0.00,CLR,,0.00,WeatherDisplay:10.37,2013-01-29 11:43:00,
2013-01-29 06:48:00,15.6,11.9,30.14,NNW,343,0.0,0.0,85,0.00,BKN,,0.00,WeatherDisplay:10.37,2013-01-29 11:48:00,
2013-01-29 06:53:00,15.4,11.7,30.14,NNW,343,0.5,1.1,85,0.00,BKN,,0.00,WeatherDisplay:10.37,2013-01-29 11:53:00,
2013-01-29 06:58:00,15.6,12.2,30.15,NNW,343,0.7,1.0,86,0.00,BKN,,0.00,WeatherDisplay:10.37,2013-01-29 11:58:00,
2013-01-29 07:03:00,15.6,12.2,30.15,NNW,344,0.0,0.0,86,0.00,BKN,,0.00,WeatherDisplay:10.37,2013-01-29 12:03:00,
2013-01-29 07:08:00,15.9,12.7,30.14,NNW,344,0.3,2.3,87,0.00,BKN,,0.00,WeatherDisplay:10.37,2013-01-29 12:08:00,
2013-01-29 07:13:00,16.4,13.5,30.14,NNW,344,0.0,0.0,88,0.00,BKN,,0.00,WeatherDisplay:10.37,2013-01-29 12:13:00,
2013-01-29 07:18:00,16.9,14.0,30.14,NNW,344,0.0,1.1,88,0.00,BKN,,0.00,WeatherDisplay:10.37,2013-01-29 12:18:00,
2013-01-29 07:23:00,17.0,14.1,30.14,NNW,344,0.0,0.0,88,0.00,BKN,,0.00,WeatherDisplay:10.37,2013-01-29 12:23:00,
2013-01-29 07:28:00,17.2,14.3,30.15,NNW,345,0.2,1.0,88,0.00,BKN,,0.00,WeatherDisplay:10.37,2013-01-29 12:28:00,
2013-01-29 07:33:00,17.4,14.5,30.16,NNW,344,0.0,0.0,88,0.00,BKN,,0.00,WeatherDisplay:10.37,2013-01-29 12:33:00,
2013-01-29 07:38:00,17.7,14.8,30.16,NNW,344,0.0,0.0,88,0.00,BKN,,0.00,WeatherDisplay:10.37,2013-01-29 12:38:00,
2013-01-29 07:43:00,18.1,15.4,30.16,NNW,344,0.0,0.0,89,0.00,BKN,,0.00,WeatherDisplay:10.37,2013-01-29 12:43:00,
2013-01-29 07:48:00,18.6,15.9,30.17,North,355,1.3,2.3,89,0.00,BKN,,0.00,WeatherDisplay:10.37,2013-01-29 12:48:00,
2013-01-29 07:53:00,18.9,16.2,30.17,North,350,0.9,2.3,89,0.00,BKN,,0.00,WeatherDisplay:10.37,2013-01-29 12:53:00,
2013-01-29 07:58:00,19.2,16.5,30.17,North,5,0.3,2.3,89,0.00,BKN,,0.00,WeatherDisplay:10.37,2013-01-29 12:58:00,
2013-01-29 08:03:00,19.4,16.7,30.17,NNW,341,0.0,1.1,89,0.00,OVC,,0.00,WeatherDisplay:10.37,2013-01-29 13:03:00,
2013-01-29 08:08:00,19.9,17.2,30.16,ENE,62,0.0,1.1,89,0.00,OVC,,0.00,WeatherDisplay:10.37,2013-01-29 13:08:00,
2013-01-29 08:13:00,19.9,17.2,30.16,ENE,60,0.0,0.0,89,0.00,OVC,,0.00,WeatherDisplay:10.37,2013-01-29 13:13:00,
2013-01-29 08:18:00,20.3,17.6,30.17,ENE,62,0.4,2.0,89,0.00,OVC,,0.00,WeatherDisplay:10.37,2013-01-29 13:18:00,
2013-01-29 08:23:00,20.5,17.8,30.17,North,358,2.4,3.5,89,0.00,OVC,,0.00,WeatherDisplay:10.37,2013-01-29 13:23:00,
2013-01-29 08:28:00,20.7,17.7,30.18,WNW,295,1.4,2.3,88,0.00,OVC,,0.00,WeatherDisplay:10.37,2013-01-29 13:28:00,
2013-01-29 08:33:00,20.8,17.8,30.17,WNW,299,1.1,2.3,88,0.00,OVC,,0.00,WeatherDisplay:10.37,2013-01-29 13:33:00,
2013-01-29 08:38:00,21.0,18.0,30.17,NNE,33,0.3,1.1,88,0.00,OVC,,0.00,WeatherDisplay:10.37,2013-01-29 13:38:00,
2013-01-29 08:43:00,21.1,17.8,30.17,ENE,63,1.8,3.5,87,0.00,OVC,,0.00,WeatherDisplay:10.37,2013-01-29 13:43:00,
2013-01-29 08:48:00,21.3,18.0,30.18,NE,39,0.8,2.0,87,0.00,OVC,,0.00,WeatherDisplay:10.37,2013-01-29 13:48:00,
2013-01-29 08:53:00,21.5,18.2,30.18,NE,41,0.0,1.1,87,0.00,OVC,,0.00,WeatherDisplay:10.37,2013-01-29 13:53:00,
2013-01-29 08:58:00,21.8,18.5,30.18,NE,39,0.2,1.0,87,0.00,OVC,,0.00,WeatherDisplay:10.37,2013-01-29 13:58:00,
2013-01-29 09:03:00,21.9,18.4,30.18,NE,41,0.8,3.5,86,0.00,OVC,,0.00,WeatherDisplay:10.37,2013-01-29 14:03:00,
2013-01-29 09:08:00,22.4,18.8,30.18,NE,39,0.6,2.3,86,0.00,OVC,,0.00,WeatherDisplay:10.37,2013-01-29 14:08:00,
2013-01-29 09:13:00,22.7,19.1,30.18,NE,38,0.4,1.1,86,0.00,OVC,,0.00,WeatherDisplay:10.37,2013-01-29 14:13:00,
2013-01-29 09:18:00,23.0,19.2,30.19,NE,35,1.4,2.3,85,0.00,OVC,,0.00,WeatherDisplay:10.37,2013-01-29 14:18:00,
2013-01-29 09:23:00,23.2,19.1,30.19,NE,35,0.6,2.3,84,0.00,OVC,,0.00,WeatherDisplay:10.37,2013-01-29 14:23:00,
2013-01-29 09:28:00,23.3,18.9,30.19,NNE,25,2.7,3.5,83,0.00,OVC,,0.00,WeatherDisplay:10.37,2013-01-29 14:28:00,
2013-01-29 09:33:00,23.5,19.1,30.20,NE,41,0.6,3.5,83,0.00,OVC,,0.00,WeatherDisplay:10.37,2013-01-29 14:33:00,
2013-01-29 09:38:00,23.6,18.9,30.19,North,11,2.3,3.5,82,0.00,OVC,,0.00,WeatherDisplay:10.37,2013-01-29 14:38:00,
2013-01-29 09:43:00,23.8,18.8,30.19,NE,50,1.3,3.5,81,0.00,OVC,,0.00,WeatherDisplay:10.37,2013-01-29 14:43:00,
2013-01-29 09:48:00,23.9,18.9,30.19,NNE,18,2.6,3.5,81,0.00,OVC,,0.00,WeatherDisplay:10.37,2013-01-29 14:48:00,
2013-01-29 09:53:00,24.2,18.9,30.19,North,358,0.7,2.3,80,0.00,OVC,,0.00,WeatherDisplay:10.37,2013-01-29 14:53:00,
2013-01-29 09:58:00,24.5,19.2,30.19,North,11,1.7,3.5,80,0.00,OVC,,0.00,WeatherDisplay:10.37,2013-01-29 14:58:00,
2013-01-29 10:03:00,24.5,18.6,30.18,North,2,3.8,4.6,78,0.00,OVC,,0.00,WeatherDisplay:10.37,2013-01-29 15:03:00,
2013-01-29 10:08:00,24.8,19.2,30.19,NNW,330,0.6,3.0,79,0.00,OVC,,0.00,WeatherDisplay:10.37,2013-01-29 15:08:00,
2013-01-29 10:13:00,25.1,19.2,30.19,NW,317,2.4,3.5,78,0.00,OVC,,0.00,WeatherDisplay:10.37,2013-01-29 15:13:00,
2013-01-29 10:18:00,25.4,19.5,30.19,NNW,333,1.7,2.3,78,0.00,OVC,,0.00,WeatherDisplay:10.37,2013-01-29 15:18:00,
2013-01-29 10:23:00,25.7,19.5,30.19,NW,312,0.6,3.5,77,0.00,OVC,,0.00,WeatherDisplay:10.37,2013-01-29 15:23:00,
2013-01-29 10:28:00,26.0,19.8,30.20,NNW,337,1.4,2.3,77,0.00,OVC,,0.00,WeatherDisplay:10.37,2013-01-29 15:28:00,
2013-01-29 10:33:00,26.1,19.9,30.20,NNW,336,1.4,2.3,77,0.00,OVC,,0.00,WeatherDisplay:10.37,2013-01-29 15:33:00,
2013-01-29 10:38:00,26.0,19.5,30.20,NNW,344,2.0,3.5,76,0.00,OVC,,0.00,WeatherDisplay:10.37,2013-01-29 15:38:00,
2013-01-29 10:43:00,26.1,19.9,30.20,NNW,337,1.7,3.5,77,0.00,OVC,,0.00,WeatherDisplay:10.37,2013-01-29 15:43:00,
2013-01-29 10:48:00,26.4,20.2,30.21,NW,310,1.5,2.3,77,0.00,OVC,,0.00,WeatherDisplay:10.37,2013-01-29 15:48:00,
2013-01-29 10:53:00,26.6,20.1,30.21,North,0,1.7,2.3,76,0.00,OVC,,0.00,WeatherDisplay:10.37,2013-01-29 15:53:00,
2013-01-29 10:58:00,26.6,20.1,30.21,NNW,345,0.2,3.5,76,0.00,OVC,,0.00,WeatherDisplay:10.37,2013-01-29 15:58:00,
2013-01-29 11:03:00,27.0,20.4,30.21,NNW,340,1.3,2.3,76,0.00,OVC,,0.00,WeatherDisplay:10.37,2013-01-29 16:03:00,
2013-01-29 11:08:00,27.3,20.4,30.21,North,2,1.9,3.0,75,0.00,OVC,,0.00,WeatherDisplay:10.37,2013-01-29 16:08:00,
2013-01-29 11:13:00,27.3,20.4,30.21,NNW,336,1.6,3.5,75,0.00,OVC,,0.00,WeatherDisplay:10.37,2013-01-29 16:13:00,
2013-01-29 11:18:00,27.5,20.6,30.22,NW,324,1.9,3.5,75,0.00,OVC,,0.00,WeatherDisplay:10.37,2013-01-29 16:18:00,
2013-01-29 11:23:00,27.6,20.7,30.22,NNE,24,1.6,4.0,75,0.00,OVC,,0.00,WeatherDisplay:10.37,2013-01-29 16:23:00,
2013-01-29 11:28:00,27.6,20.4,30.21,North,8,2.3,4.0,74,0.00,OVC,,0.00,WeatherDisplay:10.37,2013-01-29 16:28:00,
2013-01-29 11:33:00,27.6,20.7,30.20,NE,45,0.0,1.1,75,0.00,OVC,,0.00,WeatherDisplay:10.37,2013-01-29 16:33:00,
2013-01-29 11:38:00,27.9,21.0,30.20,NNE,25,0.1,3.5,75,0.00,OVC,,0.00,WeatherDisplay:10.37,2013-01-29 16:38:00,
2013-01-29 11:43:00,28.4,21.5,30.20,NNE,32,0.2,2.3,75,0.00,OVC,,0.00,WeatherDisplay:10.37,2013-01-29 16:43:00,
2013-01-29 11:48:00,28.8,21.6,30.20,North,350,1.7,4.6,74,0.00,OVC,,0.00,WeatherDisplay:10.37,2013-01-29 16:48:00,
2013-01-29 11:53:00,29.1,21.8,30.20,NW,323,2.3,3.5,74,0.00,OVC,,0.00,WeatherDisplay:10.37,2013-01-29 16:53:00,
2013-01-29 11:58:00,29.4,22.1,30.19,NW,326,0.2,1.1,74,0.00,OVC,,0.00,WeatherDisplay:10.37,2013-01-29 16:58:00,
2013-01-29 12:03:00,29.8,22.5,30.19,NW,326,1.0,2.3,74,0.00,OVC,,0.00,WeatherDisplay:10.37,2013-01-29 17:03:00,
2013-01-29 12:08:00,30.0,22.7,30.18,NW,326,0.0,1.0,74,0.00,OVC,,0.00,WeatherDisplay:10.37,2013-01-29 17:08:00,
2013-01-29 12:13:00,30.4,22.8,30.18,NW,316,1.1,2.0,73,0.00,OVC,,0.00,WeatherDisplay:10.37,2013-01-29 17:13:00,
2013-01-29 12:18:00,30.9,23.3,30.18,NW,307,1.0,2.3,73,0.00,OVC,,0.00,WeatherDisplay:10.37,2013-01-29 17:18:00,
2013-01-29 12:23:00,31.3,23.3,30.18,NW,307,0.1,1.0,72,0.00,OVC,,0.00,WeatherDisplay:10.37,2013-01-29 17:23:00,
2013-01-29 12:28:00,32.1,23.8,30.18,NW,309,0.0,0.0,71,0.00,OVC,,0.00,WeatherDisplay:10.37,2013-01-29 17:28:00,
2013-01-29 12:33:00,32.8,24.1,30.18,WNW,302,1.3,2.3,70,0.01,SCT,,0.01,WeatherDisplay:10.37,2013-01-29 17:33:00,
2013-01-29 12:38:00,33.4,24.7,30.18,West,266,4.3,4.6,70,0.01,SCT,,0.01,WeatherDisplay:10.37,2013-01-29 17:38:00,
2013-01-29 12:43:00,33.7,24.6,30.18,West,265,0.7,2.3,69,0.01,SCT,,0.01,WeatherDisplay:10.37,2013-01-29 17:43:00,
2013-01-29 12:48:00,33.4,24.7,30.18,West,279,2.4,3.5,70,0.01,SCT,,0.01,WeatherDisplay:10.37,2013-01-29 17:48:00,
2013-01-29 12:53:00,33.2,24.5,30.18,West,271,1.6,3.5,70,0.01,SCT,,0.01,WeatherDisplay:10.37,2013-01-29 17:53:00,
2013-01-29 12:58:00,33.5,24.8,30.17,WNW,286,2.6,5.0,70,0.01,SCT,,0.01,WeatherDisplay:10.37,2013-01-29 17:58:00,
2013-01-29 13:03:00,32.8,24.1,30.17,WNW,290,3.4,4.0,70,0.01,CLR,,0.01,WeatherDisplay:10.37,2013-01-29 18:03:00,
2013-01-29 13:08:00,32.8,24.4,30.17,WNW,300,0.8,2.3,71,0.01,CLR,,0.01,WeatherDisplay:10.37,2013-01-29 18:08:00,
2013-01-29 13:13:00,33.2,24.8,30.17,WNW,300,2.2,3.5,71,0.01,CLR,,0.01,WeatherDisplay:10.37,2013-01-29 18:13:00,
2013-01-29 13:18:00,33.7,25.0,30.17,WNW,303,0.6,2.3,70,0.02,CLR,,0.02,WeatherDisplay:10.37,2013-01-29 18:18:00,
2013-01-29 13:23:00,34.0,25.2,30.17,NW,312,1.7,3.5,70,0.02,CLR,,0.02,WeatherDisplay:10.37,2013-01-29 18:23:00,
2013-01-29 13:28:00,33.8,25.0,30.16,NW,313,0.0,0.0,70,0.02,CLR,,0.02,WeatherDisplay:10.37,2013-01-29 18:28:00,
2013-01-29 13:33:00,34.0,24.9,30.16,NW,312,0.0,1.1,69,0.02,CLR,,0.03,WeatherDisplay:10.37,2013-01-29 18:33:00,
2013-01-29 13:38:00,34.1,25.3,30.16,NW,309,1.8,3.0,70,0.02,CLR,,0.03,WeatherDisplay:10.37,2013-01-29 18:38:00,
2013-01-29 13:43:00,34.6,25.5,30.16,NW,316,1.0,2.0,69,0.02,CLR,,0.04,WeatherDisplay:10.37,2013-01-29 18:43:00,
2013-01-29 13:48:00,34.4,24.9,30.16,NW,314,0.9,2.3,68,0.03,CLR,,0.04,WeatherDisplay:10.37,2013-01-29 18:48:00,
2013-01-29 13:53:00,34.0,24.5,30.16,NW,313,0.1,1.1,68,0.03,CLR,,0.04,WeatherDisplay:10.37,2013-01-29 18:53:00,
2013-01-29 13:58:00,33.5,24.8,30.17,NW,314,0.0,0.0,70,0.04,CLR,,0.05,WeatherDisplay:10.37,2013-01-29 18:58:00,
2013-01-29 14:03:00,33.1,24.7,30.16,NW,320,0.9,2.3,71,0.05,RA,,0.06,WeatherDisplay:10.37,2013-01-29 19:03:00,
2013-01-29 14:08:00,32.9,24.9,30.16,NW,320,0.0,1.1,72,0.05,CLR,,0.06,WeatherDisplay:10.37,2013-01-29 19:08:00,
2013-01-29 14:13:00,33.2,25.1,30.16,NW,319,0.0,0.0,72,0.05,CLR,,0.07,WeatherDisplay:10.37,2013-01-29 19:13:00,
2013-01-29 14:18:00,33.7,25.3,30.16,NW,320,0.0,1.1,71,0.05,CLR,,0.07,WeatherDisplay:10.37,2013-01-29 19:18:00,
2013-01-29 14:23:00,33.5,24.8,30.16,NW,320,0.0,0.0,70,0.05,CLR,,0.07,WeatherDisplay:10.37,2013-01-29 19:23:00,
2013-01-29 14:28:00,33.4,25.0,30.16,NW,319,1.3,1.3,71,0.05,CLR,,0.08,WeatherDisplay:10.37,2013-01-29 19:28:00,
2013-01-29 14:33:00,33.1,24.7,30.16,NW,321,0.0,0.0,71,0.05,CLR,,0.08,WeatherDisplay:10.37,2013-01-29 19:33:00,
2013-01-29 14:38:00,32.9,24.9,30.16,NW,320,0.0,0.0,72,0.05,CLR,,0.08,WeatherDisplay:10.37,2013-01-29 19:38:00,
2013-01-29 14:43:00,33.1,25.1,30.16,NW,320,0.7,2.0,72,0.05,CLR,,0.08,WeatherDisplay:10.37,2013-01-29 19:43:00,
2013-01-29 14:48:00,32.9,24.9,30.15,North,355,1.0,2.3,72,0.05,CLR,,0.09,WeatherDisplay:10.37,2013-01-29 19:48:00,
2013-01-29 14:53:00,33.1,25.1,30.15,North,354,0.0,0.0,72,0.05,CLR,,0.09,WeatherDisplay:10.37,2013-01-29 19:53:00,
2013-01-29 14:58:00,33.4,25.7,30.16,North,354,0.0,0.0,73,0.04,CLR,,0.09,WeatherDisplay:10.37,2013-01-29 19:58:00,
2013-01-29 15:03:00,33.7,25.6,30.16,North,353,0.2,1.1,72,0.03,FEW,,0.09,WeatherDisplay:10.37,2013-01-29 20:03:00,
2013-01-29 15:08:00,34.0,25.9,30.15,North,354,0.0,0.0,72,0.04,FEW,,0.10,WeatherDisplay:10.37,2013-01-29 20:08:00,
2013-01-29 15:13:00,34.3,26.2,30.15,North,355,0.3,1.1,72,0.04,FEW,,0.10,WeatherDisplay:10.37,2013-01-29 20:13:00,
2013-01-29 15:18:00,34.4,26.0,30.17,North,355,1.2,2.3,71,0.03,FEW,,0.10,WeatherDisplay:10.37,2013-01-29 20:18:00,
2013-01-29 15:23:00,34.4,26.0,30.17,North,354,0.8,2.3,71,0.03,FEW,,0.10,WeatherDisplay:10.37,2013-01-29 20:23:00,
2013-01-29 15:28:00,34.6,26.2,30.17,North,354,1.2,3.5,71,0.03,FEW,,0.10,WeatherDisplay:10.37,2013-01-29 20:28:00,
2013-01-29 15:33:00,34.6,26.2,30.17,NNW,336,1.8,3.5,71,0.02,BKN,,0.10,WeatherDisplay:10.37,2013-01-29 20:33:00,
2013-01-29 15:38:00,34.4,26.0,30.17,NNW,334,0.7,2.3,71,0.02,BKN,,0.10,WeatherDisplay:10.37,2013-01-29 20:38:00,
2013-01-29 15:43:00,34.3,25.9,30.17,NNW,333,1.4,3.5,71,0.03,BKN,,0.11,WeatherDisplay:10.37,2013-01-29 20:43:00,
2013-01-29 15:48:00,34.0,25.9,30.17,NNW,331,0.9,2.3,72,0.02,BKN,,0.11,WeatherDisplay:10.37,2013-01-29 20:48:00,
2013-01-29 15:53:00,33.8,26.1,30.17,NNW,334,1.0,2.3,73,0.02,BKN,,0.11,WeatherDisplay:10.37,2013-01-29 20:53:00,
2013-01-29 15:58:00,33.5,26.1,30.16,SSE,148,1.2,3.5,74,0.02,BKN,,0.11,WeatherDisplay:10.37,2013-01-29 20:58:00,
2013-01-29 16:03:00,33.4,26.0,30.16,SSE,148,0.0,0.0,74,0.02,OVC,,0.11,WeatherDisplay:10.37,2013-01-29 21:03:00,
2013-01-29 16:08:00,33.4,26.3,30.16,SE,146,0.5,1.1,75,0.01,OVC,,0.11,WeatherDisplay:10.37,2013-01-29 21:08:00,
2013-01-29 16:13:00,33.2,26.1,30.16,South,185,0.9,2.3,75,0.01,OVC,,0.11,WeatherDisplay:10.37,2013-01-29 21:13:00,
2013-01-29 16:18:00,33.1,26.0,30.17,SSW,207,3.5,5.8,75,0.01,OVC,,0.11,WeatherDisplay:10.37,2013-01-29 21:18:00,
2013-01-29 16:23:00,32.9,26.2,30.17,South,180,1.0,3.5,76,0.01,OVC,,0.11,WeatherDisplay:10.37,2013-01-29 21:23:00,
2013-01-29 16:28:00,32.8,26.1,30.17,South,186,0.4,2.3,76,0.01,OVC,,0.11,WeatherDisplay:10.37,2013-01-29 21:28:00,
2013-01-29 16:33:00,32.6,26.2,30.17,South,169,0.3,1.1,77,0.01,OVC,,0.11,WeatherDisplay:10.37,2013-01-29 21:33:00,
2013-01-29 16:38:00,32.6,26.2,30.17,South,169,0.6,2.0,77,0.01,OVC,,0.11,WeatherDisplay:10.37,2013-01-29 21:38:00,
2013-01-29 16:43:00,32.5,26.4,30.17,South,169,1.2,3.5,78,0.00,OVC,,0.11,WeatherDisplay:10.37,2013-01-29 21:43:00,
2013-01-29 16:48:00,32.4,26.3,30.17,South,169,1.2,4.6,78,0.00,OVC,,0.11,WeatherDisplay:10.37,2013-01-29 21:48:00,
2013-01-29 16:53:00,32.2,26.1,30.17,South,169,0.1,2.3,78,0.00,OVC,,0.11,WeatherDisplay:10.37,2013-01-29 21:53:00,
2013-01-29 16:58:00,32.1,26.3,30.17,South,169,1.1,2.3,79,0.00,OVC,,0.11,WeatherDisplay:10.37,2013-01-29 21:58:00,
2013-01-29 17:03:00,32.1,26.3,30.17,SSE,168,0.0,0.0,79,0.00,OVC,,0.11,WeatherDisplay:10.37,2013-01-29 22:03:00,
2013-01-29 17:08:00,32.1,26.3,30.18,SSE,168,0.7,2.3,79,0.01,RA,,0.12,WeatherDisplay:10.37,2013-01-29 22:08:00,
2013-01-29 17:13:00,31.9,26.1,30.18,SSE,168,0.0,0.0,79,0.01,OVC,,0.12,WeatherDisplay:10.37,2013-01-29 22:13:00,
2013-01-29 17:18:00,31.9,26.4,30.18,South,169,0.0,0.0,80,0.01,OVC,,0.12,WeatherDisplay:10.37,2013-01-29 22:18:00,
2013-01-29 17:23:00,31.9,26.4,30.18,SSE,168,0.0,0.0,80,0.01,OVC,,0.12,WeatherDisplay:10.37,2013-01-29 22:23:00,
2013-01-29 17:28:00,31.8,26.3,30.18,SSE,168,0.0,0.0,80,0.01,OVC,,0.12,WeatherDisplay:10.37,2013-01-29 22:28:00,
2013-01-29 17:33:00,31.8,26.3,30.18,South,169,0.0,0.0,80,0.01,OVC,,0.12,WeatherDisplay:10.37,2013-01-29 22:33:00,
2013-01-29 17:38:00,31.6,26.4,30.18,SSE,168,0.0,0.0,81,0.01,OVC,,0.12,WeatherDisplay:10.37,2013-01-29 22:38:00,
2013-01-29 17:43:00,31.6,26.7,30.18,SSE,168,0.0,0.0,82,0.01,OVC,,0.12,WeatherDisplay:10.37,2013-01-29 22:43:00,
2013-01-29 17:48:00,31.5,26.6,30.19,SSE,168,0.0,0.0,82,0.01,OVC,,0.12,WeatherDisplay:10.37,2013-01-29 22:48:00,
2013-01-29 17:53:00,31.5,26.9,30.19,South,169,0.0,0.0,83,0.01,OVC,,0.12,WeatherDisplay:10.37,2013-01-29 22:53:00,
2013-01-29 17:58:00,31.5,26.9,30.19,South,169,0.7,1.1,83,0.01,OVC,,0.12,WeatherDisplay:10.37,2013-01-29 22:58:00,
2013-01-29 18:03:00,31.3,27.0,30.18,SSE,168,0.0,0.0,84,0.01,OVC,,0.12,WeatherDisplay:10.37,2013-01-29 23:03:00,
2013-01-29 18:08:00,31.3,27.0,30.18,SSE,168,0.0,0.0,84,0.01,OVC,,0.12,WeatherDisplay:10.37,2013-01-29 23:08:00,
2013-01-29 18:13:00,31.3,27.0,30.18,SSE,168,0.4,2.0,84,0.00,OVC,,0.12,WeatherDisplay:10.37,2013-01-29 23:13:00,
2013-01-29 18:18:00,31.2,26.9,30.19,SSE,168,0.0,0.0,84,0.00,OVC,,0.12,WeatherDisplay:10.37,2013-01-29 23:18:00,
2013-01-29 18:23:00,31.2,26.9,30.19,South,169,0.0,1.1,84,0.00,OVC,,0.12,WeatherDisplay:10.37,2013-01-29 23:23:00,
2013-01-29 18:28:00,31.2,27.2,30.19,SSE,168,0.0,0.0,85,0.00,OVC,,0.12,WeatherDisplay:10.37,2013-01-29 23:28:00,
2013-01-29 18:33:00,31.2,27.2,30.19,South,169,0.0,0.0,85,0.00,OVC,,0.12,WeatherDisplay:10.37,2013-01-29 23:33:00,
2013-01-29 18:38:00,31.2,27.2,30.19,SSE,168,0.0,0.0,85,0.00,OVC,,0.12,WeatherDisplay:10.37,2013-01-29 23:38:00,
2013-01-29 18:43:00,31.2,27.2,30.20,SSE,168,0.0,0.0,85,0.00,OVC,,0.12,WeatherDisplay:10.37,2013-01-29 23:43:00,
2013-01-29 18:48:00,31.2,27.2,30.20,SSE,168,0.0,1.1,85,0.00,OVC,,0.12,WeatherDisplay:10.37,2013-01-29 23:48:00,
2013-01-29 18:53:00,31.2,27.2,30.20,SSE,168,0.0,0.0,85,0.00,OVC,,0.12,WeatherDisplay:10.37,2013-01-29 23:53:00,
2013-01-29 18:58:00,31.0,27.0,30.20,South,169,0.0,0.0,85,0.00,OVC,,0.12,WeatherDisplay:10.37,2013-01-29 23:58:00,
2013-01-29 19:03:00,31.0,27.0,30.19,SSE,168,0.0,0.0,85,0.00,OVC,,0.12,WeatherDisplay:10.37,2013-01-30 00:03:00,
2013-01-29 19:08:00,31.0,27.3,30.19,SSE,168,0.0,0.0,86,0.00,OVC,,0.12,WeatherDisplay:10.37,2013-01-30 00:08:00,
2013-01-29 19:13:00,31.0,27.3,30.18,South,169,0.0,2.3,86,0.00,OVC,,0.12,WeatherDisplay:10.37,2013-01-30 00:13:00,
2013-01-29 19:18:00,31.0,27.3,30.18,SSE,168,0.0,0.0,86,0.00,OVC,,0.12,WeatherDisplay:10.37,2013-01-30 00:18:00,
2013-01-29 19:23:00,30.9,27.2,30.18,South,169,0.6,2.3,86,0.00,OVC,,0.12,WeatherDisplay:10.37,2013-01-30 00:23:00,
2013-01-29 19:28:00,30.9,27.2,30.18,SSE,168,1.4,3.5,86,0.00,OVC,,0.12,WeatherDisplay:10.37,2013-01-30 00:28:00,
2013-01-29 19:33:00,30.9,27.2,30.17,SSE,168,0.0,0.0,86,0.00,OVC,,0.12,WeatherDisplay:10.37,2013-01-30 00:33:00,
2013-01-29 19:38:00,30.9,27.2,30.17,South,169,0.2,1.1,86,0.00,OVC,,0.12,WeatherDisplay:10.37,2013-01-30 00:38:00,
2013-01-29 19:43:00,30.9,27.2,30.17,SSE,168,0.0,0.0,86,0.00,OVC,,0.12,WeatherDisplay:10.37,2013-01-30 00:43:00,
2013-01-29 19:48:00,30.9,27.2,30.18,SSE,168,0.0,0.0,86,0.00,OVC,,0.12,WeatherDisplay:10.37,2013-01-30 00:48:00,
2013-01-29 19:53:00,30.9,27.2,30.18,South,169,0.3,2.0,86,0.00,OVC,,0.12,WeatherDisplay:10.37,2013-01-30 00:53:00,
2013-01-29 19:58:00,30.9,27.2,30.18,South,169,0.4,2.0,86,0.00,OVC,,0.12,WeatherDisplay:10.37,2013-01-30 00:58:00,
2013-01-29 20:03:00,30.9,27.2,30.19,SSE,168,0.0,2.3,86,0.00,OVC,,0.12,WeatherDisplay:10.37,2013-01-30 01:03:00,
2013-01-29 20:08:00,30.9,27.2,30.19,SSE,168,0.0,1.1,86,0.00,OVC,,0.12,WeatherDisplay:10.37,2013-01-30 01:08:00,
2013-01-29 20:13:00,30.7,27.0,30.19,SSE,168,0.0,0.0,86,0.00,OVC,,0.12,WeatherDisplay:10.37,2013-01-30 01:13:00,
2013-01-29 20:18:00,30.7,27.0,30.19,South,169,0.3,1.1,86,0.00,OVC,,0.12,WeatherDisplay:10.37,2013-01-30 01:18:00,
2013-01-29 20:23:00,30.9,27.2,30.19,South,169,0.0,1.1,86,0.00,OVC,,0.12,WeatherDisplay:10.37,2013-01-30 01:23:00,
2013-01-29 20:28:00,30.9,27.5,30.19,South,169,0.0,0.0,87,0.00,OVC,,0.12,WeatherDisplay:10.37,2013-01-30 01:28:00,
2013-01-29 20:33:00,30.9,27.5,30.19,SSE,168,0.0,0.0,87,0.00,OVC,,0.12,WeatherDisplay:10.37,2013-01-30 01:33:00,
2013-01-29 20:38:00,30.7,27.3,30.19,SSE,168,0.0,0.0,87,0.00,OVC,,0.12,WeatherDisplay:10.37,2013-01-30 01:38:00,
2013-01-29 20:43:00,30.7,27.3,30.18,South,169,0.0,0.0,87,0.00,OVC,,0.12,WeatherDisplay:10.37,2013-01-30 01:43:00,
2013-01-29 20:48:00,30.7,27.3,30.18,South,169,0.1,1.1,87,0.00,OVC,,0.12,WeatherDisplay:10.37,2013-01-30 01:48:00,
2013-01-29 20:53:00,30.7,27.3,30.18,SSE,168,0.0,0.0,87,0.00,OVC,,0.12,WeatherDisplay:10.37,2013-01-30 01:53:00,
2013-01-29 20:58:00,30.9,27.5,30.18,SSE,168,0.3,1.1,87,0.00,OVC,,0.12,WeatherDisplay:10.37,2013-01-30 01:58:00,
2013-01-29 21:03:00,30.9,27.5,30.18,SSE,168,0.0,0.0,87,0.00,OVC,,0.12,WeatherDisplay:10.37,2013-01-30 02:03:00,
2013-01-29 21:08:00,30.9,27.8,30.18,SSE,168,0.8,2.3,88,0.00,OVC,,0.12,WeatherDisplay:10.37,2013-01-30 02:08:00,
2013-01-29 21:13:00,31.0,27.9,30.18,SSE,168,1.8,3.0,88,0.00,OVC,,0.12,WeatherDisplay:10.37,2013-01-30 02:13:00,
2013-01-29 21:18:00,31.0,27.9,30.18,SSE,168,0.0,0.0,88,0.00,OVC,,0.12,WeatherDisplay:10.37,2013-01-30 02:18:00,
2013-01-29 21:23:00,31.0,27.9,30.18,SSE,168,0.0,0.0,88,0.00,OVC,,0.12,WeatherDisplay:10.37,2013-01-30 02:23:00,
2013-01-29 21:28:00,31.2,28.1,30.18,South,169,0.0,0.0,88,0.00,OVC,,0.12,WeatherDisplay:10.37,2013-01-30 02:28:00,
2013-01-29 21:33:00,31.2,28.1,30.18,South,169,0.3,1.1,88,0.00,OVC,,0.12,WeatherDisplay:10.37,2013-01-30 02:33:00,
2013-01-29 21:38:00,31.2,28.3,30.18,South,169,0.7,1.0,89,0.00,OVC,,0.12,WeatherDisplay:10.37,2013-01-30 02:38:00,
2013-01-29 21:43:00,31.3,28.4,30.17,SSE,168,1.5,3.5,89,0.00,OVC,,0.12,WeatherDisplay:10.37,2013-01-30 02:43:00,
2013-01-29 21:48:00,31.3,28.4,30.17,SSE,165,0.0,2.3,89,0.00,OVC,,0.12,WeatherDisplay:10.37,2013-01-30 02:48:00,
2013-01-29 21:53:00,31.3,28.7,30.17,SSE,166,0.6,2.3,90,0.00,OVC,,0.12,WeatherDisplay:10.37,2013-01-30 02:53:00,
2013-01-29 21:58:00,31.3,28.7,30.17,SSE,166,0.0,0.0,90,0.00,OVC,,0.12,WeatherDisplay:10.37,2013-01-30 02:58:00,
2013-01-29 22:03:00,31.5,28.9,30.17,SSE,166,0.0,0.0,90,0.00,OVC,,0.12,WeatherDisplay:10.37,2013-01-30 03:03:00,
2013-01-29 22:08:00,31.5,28.9,30.17,SSE,166,0.0,0.0,90,0.00,OVC,,0.12,WeatherDisplay:10.37,2013-01-30 03:08:00,
2013-01-29 22:13:00,31.5,28.9,30.16,SSE,166,0.2,1.0,90,0.00,OVC,,0.12,WeatherDisplay:10.37,2013-01-30 03:13:00,
2013-01-29 22:18:00,31.5,28.9,30.16,SSE,166,0.0,0.0,90,0.00,OVC,,0.12,WeatherDisplay:10.37,2013-01-30 03:18:00,
2013-01-29 22:23:00,31.5,28.9,30.16,SSE,166,0.0,0.0,90,0.00,OVC,,0.12,WeatherDisplay:10.37,2013-01-30 03:23:00,
2013-01-29 22:28:00,31.5,28.9,30.16,SSE,168,0.1,2.0,90,0.00,OVC,,0.12,WeatherDisplay:10.37,2013-01-30 03:28:00,
2013-01-29 22:33:00,31.5,28.9,30.16,SSE,168,0.0,0.0,90,0.00,OVC,,0.12,WeatherDisplay:10.37,2013-01-30 03:33:00,
2013-01-29 22:38:00,31.5,28.9,30.16,SSE,166,0.0,0.0,90,0.00,OVC,,0.12,WeatherDisplay:10.37,2013-01-30 03:38:00,
2013-01-29 22:43:00,31.5,28.9,30.16,SSE,166,0.2,1.0,90,0.00,OVC,,0.12,WeatherDisplay:10.37,2013-01-30 03:43:00,
2013-01-29 22:48:00,31.5,28.9,30.16,SSE,166,0.3,2.3,90,0.00,OVC,,0.12,WeatherDisplay:10.37,2013-01-30 03:48:00,
2013-01-29 22:53:00,31.5,29.2,30.15,SSE,155,2.8,6.0,91,0.00,OVC,,0.12,WeatherDisplay:10.37,2013-01-30 03:53:00,
2013-01-29 22:58:00,31.6,29.3,30.15,SSE,149,2.5,3.5,91,0.00,OVC,,0.12,WeatherDisplay:10.37,2013-01-30 03:58:00,
2013-01-29 23:03:00,31.6,29.3,30.15,SE,146,2.3,3.5,91,0.00,OVC,,0.12,WeatherDisplay:10.37,2013-01-30 04:03:00,
2013-01-29 23:08:00,31.6,29.3,30.15,SE,146,0.0,1.1,91,0.00,OVC,,0.12,WeatherDisplay:10.37,2013-01-30 04:08:00,
2013-01-29 23:13:00,31.6,29.3,30.15,SE,146,0.0,1.1,91,0.00,OVC,,0.12,WeatherDisplay:10.37,2013-01-30 04:13:00,
2013-01-29 23:18:00,31.6,29.3,30.15,SE,146,0.6,2.3,91,0.00,OVC,,0.12,WeatherDisplay:10.37,2013-01-30 04:18:00,
2013-01-29 23:23:00,31.6,29.3,30.15,SSE,148,1.1,3.5,91,0.00,OVC,,0.12,WeatherDisplay:10.37,2013-01-30 04:23:00,
2013-01-29 23:28:00,31.6,29.3,30.15,SE,146,0.0,2.3,91,0.00,OVC,,0.12,WeatherDisplay:10.37,2013-01-30 04:28:00,
2013-01-29 23:33:00,31.6,29.3,30.15,SE,146,0.3,0.0,91,0.00,OVC,,0.12,WeatherDisplay:10.37,2013-01-30 04:33:00,
2013-01-29 23:38:00,31.6,29.3,30.15,SE,146,1.0,2.3,91,0.00,OVC,,0.12,WeatherDisplay:10.37,2013-01-30 04:38:00,
2013-01-29 23:43:00,31.8,29.5,30.15,SE,146,1.3,2.3,91,0.00,OVC,,0.12,WeatherDisplay:10.37,2013-01-30 04:43:00,
2013-01-29 23:48:00,31.8,29.5,30.15,SSE,148,0.0,0.0,91,0.00,OVC,,0.12,WeatherDisplay:10.37,2013-01-30 04:48:00,
2013-01-29 23:53:00,31.8,29.5,30.15,SE,146,0.0,1.1,91,0.00,OVC,,0.12,WeatherDisplay:10.37,2013-01-30 04:53:00,
2013-01-29 23:58:00,31.8,29.7,30.15,SSE,148,1.8,3.5,92,0.00,OVC,,0.12,WeatherDisplay:10.37,2013-01-30 04:58:00,